Location: Lane
(33.5226°N, 79.8788°W)
Time: 16:54:22
(UTC+00:00)

SR - Pass Details

Date: 05 October 2022
Orbit: 577 x 874 km, 66.7° (Epoch: 07 December)

Event Time Altitude Azimuth Distance (km) Brightness Sun altitude
Rises 10:15:12 0° 341° (NNW) 3,281 ? -13.6°
Reaches altitude 10° 10:17:52 10° 350° (N) 2,300 ? -13.1°
Maximum altitude 10:22:44 38° 57° (ENE) 1,092 ? -12.1°
Drops below altitude 10° 10:27:11 10° 126° (SE) 2,104 ? -11.1°
Sets 10:29:32 0° 135° (SE) 2,967 ? -10.7°
